Location: Newark
(44.6768°N, 22.5302°E)
Time: 17:17:25
(UTC+00:00)

UKube-1 - Pass Details

Date: 03 July 2022
Orbit: 608 x 615 km, 98.4° (Epoch: 18 August)

Event Time Altitude Azimuth Distance (km) Brightness Sun altitude
Rises 21:00:44 0° 8° (N) 2,895 ? -19.1°
Reaches altitude 10° 21:02:58 10° 3° (N) 1,984 ? -19.3°
Maximum altitude 21:07:07 48° 289° (WNW) 808 ? -19.5°
Enters shadow 21:09:40 21° 224° (SW) 1,379 ? -19.7°
